Temp
-11 -10 -10 -11 -13 -12 -11 -11 -11 -11 -11 -11 -12 -11 -12 -12 -13 -13 -13 -13 -13 -13 -13 -12 -12 -12 -12 -11 -11 -12 -12 -13 -14 -14 -15 -15 -16 -16
-11 -11 -12 -12 -12 -13 -11 -12 -12 -12 -12 -12 -12 -12 -12 -12 -13 -14 -14 -14 -14 -13 -13 -13 -12 -12 -12 -12 -12 -12 -13 -13 -14 -15 -15 -16 -16 -16
-11 -12 -12 -12 -13 -13 -12 -13 -13 -12 -12 -12 -12 -12 -13 -13 -13 -13 -14 -14 -14 -14 -14 -13 -13 -13 -13 -12 -12 -13 -13 -13 -15 -15 -15 -16 -16 -16
-12 -12 -13 -13 -14 -13 -13 -13 -13 -13 -12 -12 -12 -13 -13 -13 -13 -14 -14 -14 -14 -14 -14 -14 -14 -13 -13 -13 -13 -13 -13 -14 -15 -15 -16 -16 -16 -16
-12 -13 -14 -13 -12 -13 -13 -13 -14 -13 -12 -12 -13 -13 -13 -13 -13 -13 -13 -13 -14 -14 -14 -14 -14 -14 -14 -14 -14 -13 -14 -14 -15 -16 -16 -16 -16 -16
-13 -13 -12 -12 -13 -13 -13 -13 -13 -12 -13 -13 -13 -13 -14 -14 -13 -13 -13 -13 -13 -14 -14 -15 -14 -15 -15 -14 -14 -14 -14 -14 -15 -16 -16 -16 -16 -16
-12 -12 -12 -12 -12 -13 -12 -13 -13 -13 -13 -13 -14 -14 -14 -14 -13 -14 -13 -13 -14 -14 -14 -14 -15 -15 -14 -15 -15 -15 -16 -16 -16 -16 -17 -17 -17 -17
-13 -12 -11 -12 -12 -13 -13 -14 -14 -14 -14 -14 -14 -14 -14 -14 -14 -14 -15 -14 -14 -14 -14 -15 -15 -15 -15 -15 -16 -16 -16 -16 -16 -17 -17 -17 -17 -17
-12 -12 -13 -13 -13 -14 -14 -14 -14 -14 -14 -14 -14 -14 -15 -14 -15 -15 -14 -15 -15 -15 -15 -15 -16 -15 -16 -16 -17 -16 -16 -16 -16 -17 -17 -17 -17 -17
-13 -13 -13 -14 -14 -14 -14 -14 -15 -14 -15 -14 -15 -15 -15 -15 -15 -15 -14 -15 -15 -16 -16 -16 -16 -17 -17 -17 -17 -17 -17 -17 -17 -17 -17 -17 -18 -18
-14 -14 -13 -14 -14 -14 -15 -15 -14 -15 -14 -15 -15 -15 -15 -15 -15 -15 -15 -15 -16 -17 -18 -18 -18 -18 -18 -17 -17 -17 -17 -17 -18 -18 -18 -18 -18 -18
-15 -14 -14 -14 -14 -14 -14 -14 -15 -15 -15 -15 -15 -15 -15 -15 -15 -15 -15 -16 -17 -18 -18 -19 -19 -18 -18 -18 -18 -18 -18 -18 -18 -18 -18 -19 -19 -19
-14 -14 -14 -14 -14 -14 -15 -15 -15 -15 -15 -15 -15 -15 -15 -16 -16 -16 -16 -17 -18 -18 -19 -19 -19 -18 -18 -18 -18 -18 -18 -19 -19 -19 -19 -19 -19 -20
-14 -14 -14 -14 -14 -15 -15 -15 -15 -15 -15 -15 -15 -16 -16 -16 -18 -18 -18 -19 -19 -19 -19 -19 -19 -19 -19 -19 -19 -19 -19 -19 -19 -20 -20 -20 -20 -20
-13 -14 -15 -14 -15 -15 -15 -15 -15 -15 -16 -17 -17 -18 -18 -18 -18 -18 -18 -19 -18 -18 -19 -19 -19 -19 -19 -20 -20 -19 -20 -20 -20 -20 -20 -20 -20 -20
-14 -14 -13 -14 -14 -15 -16 -16 -16 -17 -17 -17 -18 -19 -19 -19 -19 -19 -19 -19 -19 -19 -19 -20 -20 -20 -20 -20 -20 -20 -21 -21 -21 -21 -20 -21 -20 -20
-15 -15 -15 -15 -15 -16 -16 -17 -17 -18 -19 -19 -19 -19 -19 -19 -19 -19 -19 -20 -20 -20 -20 -20 -20 -20 -21 -21 -21 -21 -21 -21 -21 -21 -21 -21 -21 -21
-16 -15 -16 -16 -17 -18 -18 -20 -18 -19 -19 -20 -21 -21 -21 -21 -21 -20 -20 -20 -20 -20 -20 -20 -21 -21 -21 -21 -21 -21 -21 -21 -22 -21 -21 -21 -21 -21
-18 -18 -18 -19 -21 -22 -21 -20 -20 -21 -21 -21 -21 -21 -21 -21 -21 -21 -21 -21 -21 -21 -21 -21 -21 -21 -22 -22 -21 -21 -21 -22 -22 -22 -22 -22 -21 -21
-21 -22 -23 -23 -23 -23 -23 -23 -23 -22 -22 -22 -22 -22 -22 -22 -21 -22 -22 -22 -22 -22 -22 -22 -22 -22 -22 -22 -21 -21 -22 -22 -22 -22 -22 -22 -21 -21
-24 -25 -26 -25 -24 -24 -23 -23 -23 -23 -22 -22 -22 -22 -22 -22 -22 -22 -22 -22 -22 -22 -22 -22 -22 -22 -22 -22 -21 -21 -22 -22 -22 -23 -22 -22 -22 -21
-26 -26 -27 -25 -24 -23 -24 -23 -23 -22 -23 -22 -22 -22 -22 -22 -22 -22 -22 -22 -22 -22 -22 -22 -22 -22 -22 -22 -22 -21 -22 -22 -23 -23 -23 -22 -22 -21
-28 -27 -28 -26 -25 -24 -23 -23 -24 -23 -22 -23 -22 -22 -22 -22 -22 -22 -23 -23 -22 -23 -22 -22 -22 -22 -22 -22 -22 -22 -22 -22 -23 -24 -23 -23 -22 -22
Height
5780 5783 5786 5788 5789 5790 5792 5792 5793 5794 5792 5790 5790 5789 5788 5786 5784 5782 5779 5776 5774 5773 5772 5770 5769 5766 5762 5759 5758 5754 5750 5746 5741 5737 5733 5731 5727 5722
5771 5773 5775 5776 5778 5781 5783 5782 5783 5783 5782 5781 5782 5780 5778 5776 5774 5772 5768 5766 5764 5763 5762 5761 5759 5757 5755 5751 5748 5745 5741 5737 5734 5730 5727 5723 5721 5715
5761 5763 5765 5767 5769 5771 5772 5773 5773 5774 5773 5772 5772 5771 5767 5765 5761 5759 5757 5757 5755 5754 5752 5752 5751 5748 5745 5742 5738 5737 5734 5729 5724 5722 5718 5717 5713 5708
5750 5752 5755 5756 5759 5760 5761 5762 5762 5762 5762 5762 5762 5760 5756 5753 5750 5748 5747 5746 5746 5745 5743 5741 5740 5739 5736 5734 5730 5726 5722 5718 5718 5716 5711 5709 5706 5703
5739 5742 5746 5745 5746 5748 5750 5751 5751 5751 5750 5750 5749 5747 5745 5741 5740 5738 5737 5734 5733 5733 5734 5733 5731 5728 5726 5724 5721 5718 5715 5711 5710 5707 5705 5701 5699 5696
5729 5730 5732 5733 5735 5736 5738 5737 5737 5737 5738 5737 5737 5735 5732 5730 5728 5725 5723 5722 5723 5723 5723 5720 5719 5719 5717 5714 5712 5708 5705 5701 5700 5699 5695 5693 5690 5687
5717 5719 5720 5721 5722 5723 5722 5724 5724 5725 5725 5724 5724 5723 5721 5719 5718 5714 5712 5711 5712 5712 5712 5710 5711 5708 5707 5704 5702 5699 5695 5694 5691 5689 5687 5683 5681 5677
5705 5706 5707 5707 5711 5709 5711 5712 5712 5712 5712 5711 5711 5710 5709 5707 5706 5705 5702 5701 5702 5701 5699 5699 5698 5697 5696 5694 5691 5688 5685 5684 5682 5680 5677 5674 5671 5668
5695 5698 5698 5698 5697 5697 5698 5699 5700 5700 5699 5699 5698 5696 5695 5693 5694 5694 5693 5691 5690 5690 5689 5688 5686 5685 5683 5683 5681 5678 5675 5675 5673 5671 5667 5664 5662 5659
5685 5685 5683 5685 5686 5688 5687 5687 5689 5688 5688 5687 5685 5684 5682 5681 5681 5681 5679 5679 5677 5676 5675 5674 5673 5673 5674 5673 5670 5667 5664 5664 5663 5660 5656 5653 5652 5650
5674 5673 5672 5673 5676 5678 5678 5677 5676 5676 5676 5673 5673 5672 5671 5670 5668 5665 5665 5664 5664 5663 5663 5663 5663 5663 5664 5663 5660 5656 5656 5654 5652 5649 5646 5643 5642 5641
5664 5663 5665 5665 5664 5664 5663 5663 5663 5663 5662 5662 5660 5658 5657 5655 5653 5651 5650 5651 5651 5651 5651 5652 5652 5652 5652 5651 5649 5646 5645 5643 5641 5639 5636 5633 5632 5632
5652 5650 5650 5650 5647 5651 5650 5647 5647 5644 5645 5644 5643 5642 5641 5641 5639 5638 5637 5637 5638 5639 5639 5640 5639 5638 5638 5637 5635 5634 5633 5632 5631 5628 5625 5623 5621 5622
5641 5641 5639 5636 5635 5634 5632 5629 5626 5628 5629 5630 5628 5625 5624 5623 5622 5622 5624 5625 5626 5627 5628 5626 5626 5626 5623 5624 5622 5621 5620 5620 5619 5617 5614 5612 5612 5611
5623 5622 5622 5622 5617 5616 5616 5615 5615 5613 5612 5612 5612 5610 5609 5609 5609 5609 5610 5610 5613 5613 5613 5613 5612 5612 5612 5610 5610 5609 5608 5608 5607 5606 5603 5601 5602 5601
5602 5601 5601 5600 5601 5600 5599 5598 5596 5595 5595 5596 5596 5594 5594 5594 5596 5596 5596 5597 5598 5600 5600 5599 5600 5598 5597 5598 5598 5598 5597 5596 5595 5593 5592 5592 5591 5592
5576 5575 5575 5575 5576 5575 5574 5576 5577 5575 5576 5578 5578 5578 5579 5580 5581 5583 5583 5584 5585 5586 5587 5587 5587 5586 5585 5585 5585 5585 5585 5583 5582 5582 5581 5581 5581 5582
5542 5544 5544 5544 5545 5547 5549 5557 5556 5557 5559 5556 5556 5560 5564 5565 5566 5568 5568 5569 5569 5570 5572 5573 5573 5573 5573 5574 5573 5573 5572 5571 5570 5570 5569 5570 5571 5571
5503 5507 5508 5511 5518 5522 5529 5531 5534 5537 5542 5544 5543 5546 5549 5551 5551 5552 5554 5555 5556 5557 5556 5558 5559 5560 5559 5560 5560 5560 5560 5559 5558 5558 5558 5559 5560 5559
5464 5467 5473 5480 5486 5494 5500 5506 5512 5517 5522 5526 5529 5533 5534 5536 5537 5538 5540 5541 5543 5544 5543 5544 5546 5546 5547 5548 5547 5547 5546 5546 5546 5546 5546 5547 5548 5548
5431 5434 5444 5454 5467 5471 5480 5487 5493 5497 5503 5507 5512 5516 5518 5520 5522 5525 5526 5528 5530 5530 5531 5532 5533 5533 5533 5534 5534 5534 5533 5533 5534 5535 5535 5536 5536 5537
5404 5405 5416 5430 5438 5449 5454 5461 5471 5477 5484 5490 5495 5499 5502 5505 5508 5510 5512 5514 5516 5516 5518 5520 5520 5520 5521 5521 5522 5521 5521 5521 5522 5523 5524 5524 5525 5525
5379 5384 5392 5406 5416 5426 5438 5444 5453 5460 5468 5475 5479 5482 5485 5491 5494 5497 5499 5500 5502 5503 5504 5507 5509 5508 5508 5508 5508 5508 5509 5509 5509 5510 5512 5513 5513 5513
Wind_Speed
46 45 44 41 43 41 44 43 44 47 50 51 49 50 50 50 50 50 49 48 44 39 39 41 43 42 44 44 45 47 47 47 47 48 43 43 43 44
48 46 46 45 42 43 45 50 50 49 53 53 54 53 53 52 52 55 52 46 38 39 42 42 42 43 47 46 45 48 50 49 49 47 42 41 40 44
50 52 49 45 44 47 53 48 50 52 54 57 54 51 53 53 53 50 48 44 41 41 42 44 43 46 47 47 47 50 52 51 49 45 43 41 40 43
56 50 50 47 49 54 52 50 53 55 57 58 50 45 48 48 48 47 48 45 49 46 47 45 47 48 51 49 49 49 52 53 49 44 44 42 40 42
57 52 51 55 56 55 55 53 54 60 55 53 45 42 48 50 53 52 51 52 51 55 53 53 53 51 52 51 52 52 53 55 48 43 41 43 42 42
57 59 57 57 56 54 56 59 60 56 48 37 41 44 48 55 54 53 52 53 53 54 59 51 52 52 51 52 52 53 54 53 47 45 43 40 41 42
62 57 58 61 63 63 62 59 59 53 47 47 48 51 54 57 54 48 46 47 52 54 50 50 52 53 53 52 52 50 47 45 43 42 42 40 40 43
62 59 61 63 59 56 65 53 49 51 50 54 58 57 54 56 55 47 46 48 47 47 50 51 54 54 55 54 49 44 45 44 44 41 41 40 41 42
56 55 53 41 39 37 39 47 54 51 52 52 53 56 59 58 55 49 53 50 50 52 54 53 54 55 55 50 45 43 43 44 42 40 39 38 41 43
38 39 36 36 36 43 47 47 53 48 50 54 58 55 55 51 52 57 52 53 54 54 56 55 54 51 49 45 43 41 41 41 39 39 38 37 40 41
33 38 34 32 39 40 40 45 54 55 62 57 58 55 53 55 56 56 55 55 55 54 51 51 51 50 48 47 45 41 40 40 38 39 37 36 40 39
39 40 40 51 53 45 54 50 46 53 56 57 59 61 60 59 61 62 60 60 58 54 53 54 54 53 49 46 43 41 40 38 39 38 34 37 35 35
47 49 49 55 57 58 56 56 58 61 65 64 65 64 65 67 69 66 64 65 60 56 55 56 53 49 46 43 42 41 39 38 39 37 35 34 31 32
56 58 57 57 61 59 56 63 58 65 69 74 75 72 69 69 61 61 60 58 56 57 57 53 51 49 45 43 40 38 37 39 39 37 33 30 30 28
59 65 64 67 66 69 73 79 79 84 76 68 68 67 65 68 63 62 63 61 62 55 51 52 47 46 43 40 39 37 36 38 40 36 32 30 31 29
68 70 73 77 81 83 81 79 76 76 76 71 67 65 63 58 58 57 55 54 56 53 48 46 43 41 41 39 39 38 37 38 40 35 31 30 30 30
76 77 80 81 83 85 85 85 83 85 79 79 71 59 62 63 64 64 64 59 56 51 44 41 41 41 41 40 40 39 38 38 35 32 30 31 32 32
86 87 89 90 88 88 89 72 49 45 50 46 55 62 64 52 57 52 50 48 44 41 41 42 43 42 41 41 39 37 38 37 35 33 32 33 34 34
99 100 98 95 87 82 70 71 67 67 71 71 58 61 58 55 54 51 45 40 43 42 41 43 43 41 39 42 42 41 40 39 38 34 32 34 35 34
97 92 88 78 84 74 68 65 63 59 56 54 51 46 46 46 43 40 38 42 42 43 41 38 37 38 41 42 40 39 38 39 37 33 33 35 35 36
79 83 71 71 65 70 70 63 58 55 52 49 48 44 43 46 46 42 42 43 40 39 39 40 40 37 37 36 35 35 37 38 35 34 34 34 36 36
62 67 70 62 60 65 56 50 56 51 48 47 41 45 51 46 45 44 44 43 41 40 40 38 36 37 36 35 35 35 38 36 33 34 35 36 36 33
57 54 49 71 57 52 57 58 52 49 55 47 53 49 45 50 49 47 44 43 43 43 41 40 39 38 38 39 37 37 39 38 34 35 36 37 34 32
Wind_Direction
235 237 241 242 244 247 254 257 259 266 268 270 274 281 282 282 282 288 287 291 287 278 282 284 291 289 288 286 289 294 302 306 314 317 319 321 323 323
237 238 239 242 246 250 255 255 261 263 266 271 279 280 283 286 285 287 284 292 275 275 279 284 288 289 287 286 289 296 299 306 313 315 315 316 319 320
238 239 243 247 250 250 253 257 262 265 268 275 280 285 286 283 281 280 277 281 270 274 279 282 289 288 286 285 290 296 300 306 311 316 312 312 318 318
239 242 245 244 246 250 257 258 262 265 270 276 279 281 282 279 274 276 271 273 270 272 277 281 283 290 290 291 293 296 301 305 312 311 313 311 312 315
242 241 243 246 249 251 255 256 261 264 271 282 272 273 282 282 279 276 272 268 268 268 274 280 283 289 293 293 295 297 302 304 312 309 308 309 311 312
242 241 244 251 253 251 254 257 261 269 279 270 268 275 284 285 282 279 274 267 271 270 278 277 283 289 293 295 296 295 299 308 312 312 308 307 308 309
244 246 250 256 257 257 260 263 264 269 274 278 278 281 280 282 278 283 276 271 273 273 273 279 283 290 292 294 295 301 310 313 313 308 304 305 306 306
247 254 257 260 275 277 270 274 269 275 273 276 278 280 279 281 272 276 278 276 269 274 277 281 284 289 293 295 300 310 314 315 314 307 304 303 302 304
263 271 270 267 266 267 264 270 268 273 274 273 278 279 278 274 266 274 277 276 274 275 278 281 286 289 293 299 306 309 313 314 313 302 298 297 300 302
262 267 263 259 263 260 262 265 266 264 267 270 272 272 272 267 264 274 274 275 275 277 279 283 287 295 299 301 303 306 312 311 305 298 295 297 302 303
261 259 252 249 255 253 262 264 261 258 260 265 267 271 269 269 270 275 277 278 277 279 286 292 295 298 300 300 302 307 310 306 298 295 292 297 301 299
276 284 257 258 255 257 253 260 260 258 256 260 259 266 267 266 268 274 276 280 286 287 290 294 296 297 299 298 300 304 305 299 292 290 291 301 298 296
265 266 260 254 247 261 245 247 255 254 254 253 258 260 263 268 273 276 281 285 290 293 295 295 295 293 292 292 295 299 295 291 287 285 291 295 290 292
261 264 261 250 249 251 243 242 241 252 258 265 265 271 279 281 285 285 284 286 288 288 289 288 288 287 287 291 291 290 287 284 281 284 291 282 284 289
270 268 260 248 240 244 254 262 264 269 276 276 274 278 281 281 281 281 282 281 281 281 280 285 285 286 287 286 285 282 279 279 282 285 279 275 277 285
268 268 266 262 260 262 265 266 267 266 268 269 268 272 274 271 273 272 269 267 277 283 282 282 281 280 281 280 279 277 275 280 281 279 273 274 275 279
265 264 263 263 263 264 264 263 262 265 267 268 267 265 266 265 268 271 277 283 282 282 281 278 278 277 276 274 274 274 277 282 274 270 272 273 274 277
262 257 256 256 258 259 258 255 257 261 262 270 269 267 270 264 274 275 277 277 276 273 275 275 273 273 273 274 273 278 281 276 269 267 271 271 274 277
259 257 256 254 253 252 246 245 248 254 253 254 258 263 268 267 271 272 271 271 273 272 270 270 269 269 269 268 273 277 277 268 267 268 268 270 273 277
255 255 255 259 259 260 263 263 263 262 260 259 260 262 264 264 264 262 264 268 267 267 267 267 268 272 273 273 274 274 271 268 268 266 267 270 274 279
258 256 250 253 248 255 251 249 255 259 254 253 257 260 257 257 257 256 261 264 267 268 266 268 271 273 275 273 272 273 271 269 263 262 266 270 275 279
262 259 246 236 234 236 241 238 241 235 248 248 255 246 248 250 258 262 262 263 266 268 270 272 272 271 274 273 275 275 272 262 259 264 267 271 275 274
261 260 249 235 233 235 232 239 248 248 241 235 245 241 244 253 256 257 262 266 267 268 271 271 271 274 273 272 274 276 274 263 256 264 267 271 269 265